Spokane Felts, WA
on Wednesday, January 23, 2013

Wednesday
Previous Day Next Day
Daily Summary
 ActualAverageRecord
Temperature
Mean Temperature °F / °C 32°F / 0°C  
Max Temperature 35°F / 2°C 38°F / 3°C 50°F / 10°C (2005)
Min Temperature 21°F / -6°C 27°F / -3°C 4°F / -15°C (2008)
Degree Days
Heating Degree Days 37 33  
Month to date heating degree days 892 784  
Since 1 July heating degree days 3060 3453  
Cooling Degree Days 0 0  
Month to date cooling degree days 0 0  
Year to date cooling degree days 0 0  
Moisture
Dew Point 24°F / -4°C   
Average Humidity 81    
Maximum Humidity 92    
Minimum Humidity 69    
Precipitation
Precipitation 0.14 in / 3.56 cm 0.06 in / 1.52 cm 0.40 in / 1.02 cm (2004)
Month to date precipitation 1.06 1.50  
Year to date precipitation 1.06 1.50  
Wind
Wind Speed 3 mph / 5 km/h   
Max Wind Speed 18 mph / 29 km/h   
Max Gust Speed 22 mph / 35 km/h   
Visibility 6 miles / 9 kilometers   
Events Rain , Snow   

Key: T is trace of precipitation, MM is missing value
Source: NWS Daily Summary
Time(PST)TemperatureDew PointHumidity Pressure Visibility Wind DirectionWind SpeedGust SpeedPrecipitationEvents Conditions
12:07 AM 24.8°F / -4.0°C 19.4°F / -7.0°C 80% 30.14 in / 1020.5 hPa 8.0 miles / 12.9 kilometers Calm Calm - N/A   Scattered Clouds
12:42 AM 24.8°F / -4.0°C 19.4°F / -7.0°C 80% 30.13 in / 1020.2 hPa 8.0 miles / 12.9 kilometers Calm Calm - N/A   Mostly Cloudy
12:53 AM 23.0°F / -5.0°C 19.0°F / -7.2°C 85% 30.21 in / 1022.8 hPa 8.0 miles / 12.9 kilometers Calm Calm - N/A   Overcast
1:53 AM 24.1°F / -4.4°C 19.9°F / -6.7°C 84% 30.21 in / 1023.0 hPa 7.0 miles / 11.3 kilometers Calm Calm - N/A   Overcast
2:13 AM 23.0°F / -5.0°C 19.4°F / -7.0°C 86% 30.14 in / 1020.5 hPa 7.0 miles / 11.3 kilometers Calm Calm - N/A   Scattered Clouds
2:53 AM 23.0°F / -5.0°C 19.0°F / -7.2°C 85% 30.19 in / 1022.3 hPa 6.0 miles / 9.7 kilometers East 3.5 mph / 5.6 km/h - N/A   Clear
3:44 AM 24.8°F / -4.0°C 19.4°F / -7.0°C 80% 30.11 in / 1019.5 hPa 7.0 miles / 11.3 kilometers Calm Calm - N/A   Scattered Clouds
3:53 AM 24.1°F / -4.4°C 19.9°F / -6.7°C 84% 30.19 in / 1022.1 hPa 6.0 miles / 9.7 kilometers Calm Calm - N/A   Scattered Clouds
4:53 AM 24.1°F / -4.4°C 19.0°F / -7.2°C 81% 30.16 in / 1021.2 hPa 6.0 miles / 9.7 kilometers ESE 3.5 mph / 5.6 km/h - N/A   Haze
5:19 AM 24.8°F / -4.0°C 19.4°F / -7.0°C 80% 30.08 in / 1018.5 hPa 7.0 miles / 11.3 kilometers Calm Calm - N/A   Scattered Clouds
5:53 AM 23.0°F / -5.0°C 19.0°F / -7.2°C 85% 30.14 in / 1020.6 hPa 8.0 miles / 12.9 kilometers Calm Calm - N/A   Clear
6:53 AM 21.9°F / -5.6°C 19.0°F / -7.2°C 89% 30.14 in / 1020.5 hPa 7.0 miles / 11.3 kilometers Calm Calm - N/A   Clear
7:53 AM 24.1°F / -4.4°C 19.9°F / -6.7°C 84% 30.13 in / 1020.1 hPa 5.0 miles / 8.0 kilometers Calm Calm - N/A   Clear
8:53 AM 24.1°F / -4.4°C 19.9°F / -6.7°C 84% 30.12 in / 1020.0 hPa 7.0 miles / 11.3 kilometers Calm Calm - N/A   Clear
9:53 AM 26.1°F / -3.3°C 21.9°F / -5.6°C 84% 30.12 in / 1019.7 hPa 7.0 miles / 11.3 kilometers Calm Calm - N/A   Clear
10:53 AM 30.9°F / -0.6°C 23.0°F / -5.0°C 72% 30.09 in / 1018.9 hPa 10.0 miles / 16.1 kilometers Calm Calm - N/A   Clear
11:53 AM 32.0°F / 0.0°C 24.1°F / -4.4°C 73% 30.07 in / 1018.1 hPa 10.0 miles / 16.1 kilometers East 4.6 mph / 7.4 km/h - N/A   Clear
12:53 PM 33.1°F / 0.6°C 24.1°F / -4.4°C 70% 30.04 in / 1017.2 hPa 10.0 miles / 16.1 kilometers Calm Calm - N/A   Partly Cloudy
1:53 PM 34.0°F / 1.1°C 25.0°F / -3.9°C 70% 30.01 in / 1016.3 hPa 10.0 miles / 16.1 kilometers Calm Calm - N/A   Mostly Cloudy
2:53 PM 32.0°F / 0.0°C 25.0°F / -3.9°C 75% 30.03 in / 1016.7 hPa 10.0 miles / 16.1 kilometers Calm Calm - N/A   Overcast
3:19 PM 32.0°F / 0.0°C 24.8°F / -4.0°C 75% 29.96 in / 1014.4 hPa 1.5 miles / 2.4 kilometers Calm Calm - 0.00 in / 0.0 cm Snow Light Snow
3:30 PM 30.2°F / -1.0°C 26.6°F / -3.0°C 86% 29.96 in / 1014.4 hPa 0.8 miles / 1.2 kilometers East 3.5 mph / 5.6 km/h - 0.01 in / 0.3 cm Snow Light Snow
3:53 PM 30.9°F / -0.6°C 27.0°F / -2.8°C 85% 30.03 in / 1016.8 hPa 0.8 miles / 1.2 kilometers ESE 3.5 mph / 5.6 km/h - 0.03 in / 0.8 cm Snow Light Snow
3:59 PM 32.0°F / 0.0°C 26.6°F / -3.0°C 80% 29.97 in / 1014.8 hPa 3.0 miles / 4.8 kilometers Calm Calm - 0.01 in / 0.3 cm Snow Light Snow
4:12 PM 32.0°F / 0.0°C 26.6°F / -3.0°C 80% 29.98 in / 1015.1 hPa 3.0 miles / 4.8 kilometers South 3.5 mph / 5.6 km/h - 0.01 in / 0.3 cm Snow Light Snow
4:17 PM 32.0°F / 0.0°C 26.6°F / -3.0°C 80% 29.98 in / 1015.1 hPa 1.0 miles / 1.6 kilometers Calm Calm - 0.01 in / 0.3 cm Snow Light Snow
4:53 PM 32.0°F / 0.0°C 28.0°F / -2.2°C 85% 30.01 in / 1016.3 hPa 1.0 miles / 1.6 kilometers ENE 4.6 mph / 7.4 km/h - 0.05 in / 1.3 cm Snow Light Snow
4:55 PM 32.0°F / 0.0°C 28.4°F / -2.0°C 87% 29.95 in / 1014.1 hPa 2.5 miles / 4.0 kilometers ENE 4.6 mph / 7.4 km/h - 0.00 in / 0.0 cm Snow Light Snow
5:26 PM 32.0°F / 0.0°C 28.4°F / -2.0°C 87% 29.95 in / 1014.1 hPa 2.5 miles / 4.0 kilometers Calm Calm - 0.02 in / 0.5 cm Rain Light Freezing Rain
5:53 PM 33.1°F / 0.6°C 30.0°F / -1.1°C 89% 30.00 in / 1015.9 hPa 2.5 miles / 4.0 kilometers Calm Calm - 0.02 in / 0.5 cm Rain Light Freezing Rain
6:00 PM 33.8°F / 1.0°C 30.2°F / -1.0°C 87% 29.94 in / 1013.8 hPa 3.0 miles / 4.8 kilometers Calm Calm - 0.00 in / 0.0 cm Rain Light Freezing Rain
6:33 PM 33.8°F / 1.0°C 28.4°F / -2.0°C 81% 29.92 in / 1013.1 hPa 3.0 miles / 4.8 kilometers ENE 4.6 mph / 7.4 km/h - 0.02 in / 0.5 cm Rain Light Rain
6:53 PM 33.1°F / 0.6°C 30.0°F / -1.1°C 89% 29.96 in / 1014.6 hPa 3.0 miles / 4.8 kilometers NE 4.6 mph / 7.4 km/h - 0.02 in / 0.5 cm   Overcast
7:33 PM 33.8°F / 1.0°C 30.2°F / -1.0°C 87% 29.91 in / 1012.8 hPa 5.0 miles / 8.0 kilometers Calm Calm - 0.01 in / 0.3 cm Rain Light Rain
7:53 PM 33.1°F / 0.6°C 30.0°F / -1.1°C 89% 29.97 in / 1014.9 hPa 4.0 miles / 6.4 kilometers WNW 3.5 mph / 5.6 km/h - 0.01 in / 0.3 cm   Overcast
8:53 PM 34.0°F / 1.1°C 30.0°F / -1.1°C 85% 29.99 in / 1015.5 hPa 4.0 miles / 6.4 kilometers West 4.6 mph / 7.4 km/h - 0.01 in / 0.3 cm   Overcast
9:31 PM 33.8°F / 1.0°C 28.4°F / -2.0°C 81% 29.97 in / 1014.8 hPa 9.0 miles / 14.5 kilometers SW 16.1 mph / 25.9 km/h 21.9 mph / 35.2 km/h 0.00 in / 0.0 cm   Overcast
9:39 PM 33.8°F / 1.0°C 28.4°F / -2.0°C 81% 29.98 in / 1015.1 hPa 10.0 miles / 16.1 kilometers SW 15.0 mph / 24.1 km/h - 0.00 in / 0.0 cm   Overcast
9:53 PM 32.0°F / 0.0°C 26.1°F / -3.3°C 79% 30.05 in / 1017.4 hPa 10.0 miles / 16.1 kilometers SSW 17.3 mph / 27.8 km/h - 0.00 in / 0.0 cm   Overcast
10:53 PM 28.9°F / -1.7°C 21.9°F / -5.6°C 75% 30.09 in / 1019.0 hPa 10.0 miles / 16.1 kilometers SSW 12.7 mph / 20.4 km/h - N/A   Overcast
11:53 PM 27.0°F / -2.8°C 21.9°F / -5.6°C 81% 30.12 in / 1020.0 hPa 10.0 miles / 16.1 kilometers SSW 6.9 mph / 11.1 km/h - N/A   Overcast
Moon Phase
Jan. 23 Jan. 26 Feb. 03 Feb. 10 Feb. 17
Sunrise:07:26 AM (PST) Moon Rise:01:47 PM (PST)1/23
Sunset:04:36 PM (PST) Moon Set:04:44 AM (PST)1/23

Copyright © 2014 The Weather Underground, Inc.